Location: *
(43.0409°N, 0.1694°E)
Time: 12:23:37
(UTC+00:00)

IRS-1C - Pass Details

Date: 03 October 2023
Orbit: 814 x 816 km, 99.0° (Epoch: 01 December)

Event Time Altitude Azimuth Distance (km) Brightness Sun altitude
Rises 04:46:20 0° 12° (NNE) 3,354 7.6 -14.0°
Reaches altitude 10° 04:48:42 10° 11° (NNE) 2,417 6.8 -13.5°
Maximum altitude 04:54:02 78° 287° (WNW) 839 4.1 -12.6°
Drops below altitude 10° 04:59:21 10° 201° (SSW) 2,400 6.3 -11.6°
Sets 05:01:40 0° 200° (SSW) 3,327 7.0 -11.2°
